RADUGA-1 5 [-]

Last updated on Jan. 28, 2020, 4:41 a.m. UTC

1 26477U 00049A   20027.17110042  .00000073  00000-0  00000-0 0  9996
2 26477  12.5815  25.1250 0005993 346.5036 229.2391  1.00224591 71020
UTC
Height (km)
Latitude
Longitude
Inclination
Orbital Period
UTC large
Height (km)
Speed (km/s)
/
Latitude / Longitude
Inclination (degrees)
Orbital Period (minutes)
Azimuth
Elevation
Range (km)
Doppler Factor
iOS Compass Heading
iOS Angle

Next 30 passes for location: Hong Kong

Rise time Rise Azimuth (degrees) Set time Set Azimuth (degrees) Duration Max altitude (degrees)

No matching passes for this satellites